Printer-friendly version

IAU Minor Planet Center

Minor Planet Center

MPEC 2006-U07 : 2006 UJ

The following Minor Planet Electronic Circular may be linked-to from your own Web pages, but must not otherwise be redistributed electronically.


Read MPEC 2006-U06 Read MPEC 2006-U08


M.P.E.C. 2006-U07                                Issued 2006 Oct. 18, 12:34 UT

     The Minor Planet Electronic Circulars contain information on unusual
         minor planets and routine data on comets.  They are published
   on behalf of Commission 20 of the International Astronomical Union by the
          Minor Planet Center, Smithsonian Astrophysical Observatory,
                          Cambridge, MA 02138, U.S.A.

             Prepared using the Tamkin Foundation Computer Network

                              MPC@CFA.HARVARD.EDU
          URL http://cfa-www.harvard.edu/iau/mpc.html  ISSN 1523-6714

                                    2006 UJ

Observations:
     K06U00J* C2006 10 16.30695 02 36 03.65 +14 00 52.2          20.4 V EU007691
     K06U00J  C2006 10 16.32442 02 36 06.64 +14 00 25.1          20.6 V EU007691
     K06U00J  C2006 10 16.34183 02 36 09.56 +13 59 58.3          20.9 V EU007691
     K06U00J tC2006 10 16.38597 02 36 17.17 +13 58 50.3          20.9 V EU007291
     K06U00J tC2006 10 16.38990 02 36 17.88 +13 58 43.9          20.9 V EU007291
     K06U00J tC2006 10 16.39391 02 36 18.53 +13 58 38.3          20.8 V EU007291
     K06U00J  C2006 10 18.29416 02 42 08.44 +13 10 25.2          21.1 V EU007291
     K06U00J  C2006 10 18.29806 02 42 09.11 +13 10 19.3          21.2 V EU007291
     K06U00J  C2006 10 18.30193 02 42 09.81 +13 10 11.9          21.4 V EU007291

Observer details:
291 LPL/Spacewatch II.  Observer T. H. Bressi.  1.8-m f/2.7 reflector + CCD.
691 Steward Observatory, Kitt Peak.  Observer T. H. Bressi.  0.9-m f/3
    reflector + CCD.

Orbital elements:
2006 UJ                                                  Earth MOID = 0.1473 AU
Epoch 2006 Sept. 22.0 TT = JDT 2454000.5                MPC
M 357.21095              (2000.0)            P               Q
n   0.28380108     Peri.  167.59527     +0.98062538     -0.19189196
a   2.2932955      Node   203.57880     +0.17026330     +0.93435124
e   0.5003557      Incl.    5.65079     +0.09687245     +0.30027525
P   3.47           H   23.6           G   0.15           U   8
Residuals in seconds of arc
061016 691  0.4+  0.5+    061016 291  0.1-  0.1-    061018 291  0.9-  0.6+
061016 691  0.2+  0.0     061016 291  0.4+  0.4-    061018 291  0.2-  0.5+
061016 691  0.8-  0.2-    061016 291  0.1-  0.2+    061018 291  1.1+  1.1-

Ephemeris:
2006 UJ                  a,e,i = 2.29, 0.50, 6                   q = 1.1458
Date    TT    R. A. (2000) Decl.     Delta      r     Elong.  Phase     V
2006 10 12    02 21.21   +15 51.9    0.162    1.152   160.1    17.1    20.9
2006 10 17    02 38.22   +13 43.5    0.169    1.159   161.8    15.5    20.9
2006 10 22    02 52.19   +11 40.2    0.179    1.168   163.6    13.9    21.0
2006 10 27    03 03.34   +09 49.4    0.192    1.181   165.3    12.3    21.1
2006 11 01    03 12.07   +08 15.6    0.207    1.195   166.7    11.0    21.3
2006 11 06    03 18.83   +07 00.5    0.225    1.212   167.6    10.1    21.4
2006 11 11    03 24.04   +06 04.2    0.246    1.231   167.7     9.9    21.6
2006 11 16    03 28.10   +05 25.7    0.269    1.252   166.8    10.4    21.9
2006 11 21    03 31.41   +05 03.8    0.295    1.275   164.9    11.6    22.2

Timothy B. Spahr             (C) Copyright 2006 MPC           M.P.E.C. 2006-U07

Read MPEC 2006-U06 Read MPEC 2006-U08


Our Web policy. Index to the CBAT/MPC/ICQ pages.


Valid HTML 4.01!